GEFSGL_500_meanwind_120.txt.gz
Wind_Speed
29 29 30 31 31 31 31 30 30 31 31 31 31 30 30 29 29 30 30 30 29 29 30 31 31 31 31 31 31 32 33 34 35 36 36 37 38 38 39 39 39 39 40
28 29 30 30 30 29 29 30 30 30 30 30 30 29 29 29 29 29 30 29 29 29 29 30 30 30 30 30 31 32 32 33 34 35 35 36 37 37 38 38 38 38 38
27 28 28 29 29 29 29 29 29 28 28 28 29 29 28 28 29 29 29 29 29 29 28 28 28 28 29 30 31 31 31 31 32 33 33 34 35 35 36 36 36 35 35
26 26 26 26 26 26 26 27 26 26 26 26 27 27 27 27 27 27 27 27 28 27 27 26 26 26 28 29 29 30 30 30 31 31 32 32 32 33 33 33 33 33 32
25 24 24 24 24 24 24 24 24 23 23 24 24 24 24 24 24 24 24 23 24 24 24 24 24 25 27 27 27 27 27 28 29 29 30 30 30 30 30 30 29 29 28
21 21 21 21 20 20 21 21 21 20 20 20 20 20 21 20 21 21 21 22 21 21 21 22 23 24 24 24 24 24 24 25 26 26 26 26 27 27 27 26 26 24 24
18 17 17 17 17 17 18 18 18 17 17 17 17 17 17 17 18 18 17 17 18 19 19 20 20 20 19 20 21 22 23 24 25 24 24 24 24 23 23 22 22 21 21
16 15 15 15 15 15 15 15 15 15 15 14 14 15 14 15 15 14 14 15 16 17 17 17 18 18 18 19 20 21 22 22 22 22 22 22 21 20 20 19 18 18 18
13 12 12 12 12 11 11 12 12 13 13 13 14 13 13 13 13 14 13 14 15 15 15 16 16 17 18 18 18 19 19 19 19 19 19 18 17 17 16 15 15 15 14
11 10 10 9 8 8 8 9 10 11 11 11 11 12 11 11 12 13 13 14 13 13 14 14 15 15 16 16 16 16 16 16 16 16 15 14 14 13 12 11 11 11 10
8 8 8 7 6 6 6 7 7 7 8 9 10 10 11 11 11 12 12 12 12 12 12 12 12 13 13 14 14 13 13 13 12 12 11 11 10 9 9 8 8 8 8
6 5 5 5 5 5 4 4 5 5 6 7 7 7 8 9 9 10 10 10 10 10 10 10 10 10 10 10 10 10 10 10 9 9 8 8 7 7 6 6 6 6 6
4 3 4 4 4 4 4 3 3 3 3 4 4 4 5 6 6 7 7 8 8 8 8 8 8 8 9 9 9 8 8 8 8 7 6 6 5 5 5 5 5 5 5
3 2 2 2 2 2 2 2 2 2 3 3 3 3 4 5 5 6 6 6 6 6 7 7 7 8 8 7 7 7 7 6 6 5 5 5 5 4 4 4 4 4 4
3 2 1 1 1 1 2 2 2 2 3 4 4 4 4 5 5 5 5 5 5 5 5 5 6 6 6 6 6 6 6 5 4 4 4 3 3 3 3 3 3 3 3
5 5 4 4 4 4 3 3 2 2 2 3 3 4 4 3 2 2 3 3 3 3 3 4 4 4 4 5 5 4 4 3 2 2 2 2 2 1 1 2 2 3 3
7 7 6 6 6 6 6 6 5 5 4 5 5 4 4 4 3 3 2 2 2 2 3 3 3 4 4 4 4 3 2 2 2 2 1 1 1 1 1 2 2 2 3
9 9 9 8 8 9 8 8 8 7 7 6 6 6 6 6 5 5 4 4 3 3 3 4 4 5 4 4 3 3 2 2 2 2 1 0 1 1 1 2 2 3 4
11 11 12 11 11 11 11 11 10 10 9 9 8 8 8 8 7 7 7 6 6 6 6 5 5 5 5 5 4 4 3 2 2 1 1 1 1 1 1 2 2 3 4
13 13 13 13 13 13 13 13 13 12 12 12 11 11 10 10 9 9 9 8 8 8 7 6 6 6 6 5 5 5 4 4 3 2 2 1 1 1 2 2 3 4 5
14 14 14 14 14 14 14 14 14 14 13 13 13 13 12 12 11 11 10 10 9 8 8 7 7 7 7 6 6 6 6 5 4 4 3 3 2 2 2 3 3 4 5
14 14 14 14 14 14 15 15 15 15 15 15 14 14 13 12 12 12 11 11 10 9 9 9 8 8 8 8 7 7 6 6 5 4 4 3 3 3 3 3 4 5 6
14 14 14 14 14 15 15 16 16 16 16 16 15 14 14 13 13 12 12 11 10 10 10 10 9 9 9 8 8 8 7 7 6 5 5 4 4 4 4 4 5 5 6
15 14 14 14 14 15 15 15 15 15 15 15 15 15 14 14 14 13 13 12 12 11 11 11 10 10 9 9 8 8 8 7 7 6 6 5 5 4 5 5 6 7 8
14 14 14 14 14 14 14 14 14 14 14 14 15 15 15 14 14 13 13 12 12 12 12 11 11 10 10 9 9 9 8 8 7 7 6 6 6 6 7 7 8 9 10
13 13 14 14 14 14 14 14 14 14 14 14 14 14 14 13 13 13 12 12 12 12 12 12 11 11 10 10 9 9 8 8 8 7 7 7 8 8 9 10 10 11 12

GEFSGL_500_meanwind_126.txt.gz
Wind_Speed
27 27 27 28 28 28 27 26 27 27 27 27 28 28 28 29 30 30 31 32 32 32 33 33 33 33 33 34 34 34 34 35 35 35 36 36 37 38 39 39 39 39 39
27 28 28 28 28 27 27 26 26 26 26 27 27 27 27 28 29 29 30 31 32 32 32 33 32 32 32 33 34 34 34 34 35 35 35 36 37 37 37 37 38 38 37
28 27 27 27 27 26 26 25 25 25 26 27 27 27 27 27 28 28 28 29 29 30 31 31 31 31 32 33 33 33 33 33 33 34 35 36 36 36 35 36 36 36 37
28 27 27 26 25 25 24 24 24 25 25 25 25 25 25 25 25 25 26 27 28 29 29 29 29 30 30 30 31 31 32 32 33 33 34 33 34 34 34 34 34 34 34
27 26 25 24 24 24 23 24 23 23 23 23 22 23 23 23 24 24 25 25 26 26 26 27 27 28 29 29 29 30 30 30 30 31 31 31 31 31 31 32 32 31 31
25 24 23 22 22 21 21 22 22 21 21 21 21 21 21 22 21 22 23 24 24 25 25 25 26 27 27 27 28 28 28 28 28 28 29 29 29 29 29 29 29 28 27
22 21 20 20 19 19 19 19 19 18 18 19 19 18 19 20 20 20 20 21 21 21 21 22 22 22 23 23 24 25 25 24 25 26 26 27 27 27 27 26 25 25 24
18 17 17 16 16 16 16 15 15 15 16 16 16 16 17 17 17 17 17 17 18 18 18 18 19 19 19 20 20 21 22 22 23 24 24 24 24 23 23 22 22 21 20
15 14 14 13 13 13 13 13 13 13 13 13 14 14 14 14 14 14 14 15 15 15 16 16 16 16 16 17 18 19 19 20 21 21 20 20 19 19 18 18 18 19 18
13 12 11 10 11 11 10 11 11 10 11 11 11 11 12 11 12 12 12 12 12 12 12 13 14 14 15 16 16 16 16 16 16 16 16 16 16 15 15 15 15 15 14
10 10 10 9 8 8 8 8 8 9 9 8 8 9 9 9 10 11 10 10 9 10 10 11 12 13 13 13 13 13 13 13 13 13 13 12 12 11 11 10 10 9 10
8 7 8 7 7 7 6 6 6 7 7 6 6 6 6 6 7 7 7 7 8 9 9 9 9 10 11 11 10 10 10 10 10 11 10 10 9 9 8 8 8 8 8
6 6 6 7 6 5 5 4 4 5 5 5 5 5 5 5 5 5 5 5 6 6 7 7 8 8 8 8 8 9 9 9 9 9 9 8 8 8 7 7 6 6 6
5 5 6 6 5 4 3 3 3 3 4 4 4 4 3 3 3 3 3 4 4 4 5 6 6 5 6 6 7 7 7 7 7 7 7 6 6 5 5 5 5 5 5
5 5 6 6 5 5 5 5 4 4 3 3 3 2 2 2 2 1 1 2 2 3 3 4 4 4 5 5 6 6 6 6 6 5 5 4 4 3 3 3 3 4 5
7 7 8 8 8 7 7 7 7 7 6 6 6 5 5 4 4 3 3 3 3 3 4 4 4 4 4 5 5 5 5 4 4 4 3 3 3 2 3 3 3 4 4
9 9 10 10 10 9 10 10 10 10 10 9 9 8 8 7 7 6 6 6 5 5 5 5 5 5 5 5 5 5 5 4 4 4 3 3 3 3 3 3 4 4 5
10 10 11 11 11 11 11 11 11 11 11 11 11 10 10 10 9 8 8 8 7 7 7 7 7 7 6 6 6 6 6 6 5 4 4 4 3 3 3 4 4 5 5
11 12 12 13 13 13 12 12 12 13 13 13 12 12 12 11 11 11 10 10 9 9 9 9 9 8 8 8 8 7 7 7 6 5 5 4 4 4 4 4 5 5 5
13 14 14 14 14 14 14 14 14 14 14 14 14 13 13 13 12 12 11 11 10 10 10 10 9 9 9 9 8 8 8 8 7 7 6 5 5 4 4 5 5 5 6
14 14 14 14 15 15 15 15 15 15 15 14 14 14 14 13 13 13 13 12 12 11 11 10 10 10 10 10 9 9 9 8 8 8 7 7 6 6 5 6 6 7 7
15 15 15 15 16 16 16 16 16 16 16 15 15 15 15 14 14 14 14 13 13 12 12 11 11 10 10 10 10 10 9 9 8 8 8 8 7 7 7 7 8 8 9
15 15 16 16 16 16 16 17 17 17 17 16 16 16 15 15 15 14 13 13 13 13 12 12 12 11 11 11 11 10 10 10 9 9 9 8 8 8 9 9 9 10 11
16 16 16 16 16 16 16 16 16 16 16 16 16 16 16 15 14 14 14 13 13 13 12 12 12 12 11 11 11 11 11 10 10 10 9 9 9 9 10 10 11 12 13
15 15 15 15 15 15 15 15 16 16 15 15 15 15 15 14 14 14 14 13 13 13 12 12 12 12 12 11 11 11 11 11 11 10 10 10 11 11 12 12 13 14 15
14 14 14 14 15 15 15 15 15 15 14 14 14 14 14 14 13 13 13 13 13 12 12 12 12 12 12 12 12 12 11 11 12 12 12 12 13 14 14 15 16 17 18

GEFSGL_500_meanwind_132.txt.gz
Wind_Speed
27 27 27 27 28 28 28 29 29 29 29 29 29 29 29 30 30 30 31 31 31 32 32 32 34 35 35 36 36 37 37 37 36 36 36 37 37 37 38 38 38 38 39
27 27 28 28 28 28 28 29 28 28 29 29 29 28 28 28 29 29 30 30 31 31 31 31 32 33 35 35 36 36 37 37 37 36 37 37 37 37 37 38 38 39 38
28 27 28 28 28 28 28 28 28 27 27 27 28 28 27 27 28 28 29 29 29 29 29 29 30 32 33 33 34 35 36 36 36 36 36 36 36 37 37 38 38 38 38
26 27 27 28 27 27 28 28 27 26 26 25 25 26 26 26 26 26 26 26 26 27 27 27 27 28 29 31 32 32 32 32 32 32 32 33 34 35 35 36 37 38 37
26 26 27 27 27 27 26 26 25 25 24 24 24 24 24 23 24 24 24 23 24 24 25 25 25 26 27 27 28 28 29 29 29 29 29 30 31 32 33 34 34 34 33
25 25 26 26 25 24 24 23 23 22 22 21 21 21 21 21 21 21 21 21 21 22 22 23 23 23 23 23 25 25 26 27 27 27 28 27 28 29 30 31 31 29 29
23 23 23 22 22 22 21 21 21 20 20 19 19 19 19 19 20 20 20 20 20 20 20 21 21 21 21 21 21 21 22 23 23 24 25 25 25 26 26 26 26 25 24
21 21 20 20 19 19 18 18 18 17 17 16 17 17 17 18 18 18 18 18 18 18 18 19 19 19 19 18 18 18 19 19 20 21 22 22 22 22 21 20 20 19 19
18 18 18 17 16 15 14 14 14 14 14 14 14 15 15 15 16 15 15 15 15 16 16 16 16 16 15 15 15 15 16 17 18 18 18 18 18 17 17 17 16 16 16
15 14 13 12 11 11 11 11 11 11 11 11 11 11 11 12 12 12 12 12 12 13 12 12 12 12 12 12 12 13 13 13 14 14 14 14 15 14 13 13 13 14 15
12 11 10 9 8 8 8 8 9 9 8 8 9 10 9 9 9 9 9 9 9 8 8 8 8 8 8 9 9 9 10 10 10 11 11 11 11 10 11 11 11 12 13
8 7 7 6 6 6 6 6 6 6 5 6 6 6 6 6 6 6 6 6 6 5 5 5 6 6 6 6 7 7 7 8 8 9 9 9 8 8 8 9 10 10 11
6 6 6 5 4 4 3 4 4 3 3 3 3 3 3 3 3 3 3 2 2 2 2 2 2 3 4 4 4 5 6 6 7 7 7 7 7 7 7 7 8 8 9
6 5 5 4 4 3 3 2 1 0 1 0 0 0 0 0 1 1 1 2 2 2 1 1 2 2 3 3 4 5 5 4 4 4 4 5 5 6 6 7 7 7 7
6 6 6 6 5 5 5 5 5 4 4 4 4 4 4 4 4 5 4 4 4 4 4 4 4 4 4 4 4 4 3 3 3 3 4 4 5 5 6 6 6 6 7
8 8 8 8 8 8 9 9 9 8 8 8 7 7 7 7 7 7 7 7 7 6 6 6 6 5 5 5 4 4 4 4 4 3 4 4 4 5 5 5 5 6 6
11 11 11 11 11 11 12 12 11 11 11 11 10 10 10 10 10 10 10 9 9 9 8 8 7 7 6 6 5 5 5 4 4 4 4 4 5 5 5 5 5 6 6
12 13 13 13 13 13 13 13 12 12 12 12 12 13 13 13 12 12 11 11 10 10 9 8 8 7 7 6 6 6 5 5 5 5 5 5 5 5 5 5 5 6 7
13 14 14 14 14 14 14 13 13 13 13 13 14 14 14 14 13 13 12 12 11 10 10 9 9 8 8 8 7 7 7 6 6 6 6 6 6 6 6 6 7 7 8
14 15 15 15 15 14 15 14 14 14 15 15 15 15 15 14 14 14 13 12 12 11 11 11 10 10 10 9 9 9 8 8 7 7 7 7 7 7 7 7 7 8 8
15 15 15 16 16 16 16 16 16 16 16 16 15 15 14 14 14 13 13 13 12 12 12 11 11 11 11 10 10 9 9 8 8 8 8 8 8 8 8 8 9 9 10
16 16 16 16 16 16 16 16 17 17 16 16 15 15 14 14 14 13 13 12 12 11 11 10 10 10 10 10 9 9 9 8 8 8 8 9 9 9 9 10 11 11 12
15 15 15 15 16 16 16 16 16 16 16 15 15 14 14 13 13 13 12 11 11 11 10 10 10 10 10 10 10 10 9 9 9 9 9 10 10 11 12 12 13 14 14
14 14 14 14 15 15 15 15 15 15 14 14 14 13 13 13 12 12 12 11 11 11 10 10 10 10 10 10 10 10 10 10 10 10 11 11 12 13 14 15 15 16 17
12 13 13 14 14 13 14 13 13 13 13 13 13 12 12 12 11 11 11 11 11 11 11 10 10 10 11 11 11 11 11 12 12 13 13 14 15 16 17 18 18 18 19
11 11 12 12 12 12 12 12 12 12 12 12 12 11 11 11 11 10 10 11 11 11 11 11 11 11 12 12 12 12 13 13 14 15 15 16 17 18 19 20 21 21 22

GEFSGL_500_meanwind_138.txt.gz
Wind_Speed
30 29 29 29 29 29 29 29 29 29 29 29 29 29 30 29 28 28 27 28 28 28 29 29 29 30 31 32 32 32 32 33 34 34 34 33 33 33 33 34 34 34 34
29 29 28 28 28 28 29 29 29 29 28 28 28 28 28 27 26 26 27 27 27 27 28 28 28 29 30 30 31 31 31 32 32 33 32 32 32 31 30 30 31 32 33
29 28 27 27 27 27 27 28 28 28 28 28 28 27 27 26 26 26 26 26 26 26 27 27 27 27 28 28 29 29 29 29 29 30 30 29 29 29 29 29 30 29 29
28 27 27 26 26 27 27 26 27 27 27 27 27 26 26 25 25 25 25 24 24 25 25 25 25 25 25 25 26 26 26 27 27 27 27 27 27 27 28 28 28 28 29
26 27 26 26 26 26 26 26 26 26 25 25 24 24 24 23 23 23 23 23 23 23 23 23 23 23 23 23 24 24 24 24 25 24 24 25 25 26 26 26 26 27 28
26 26 25 25 25 25 25 24 24 23 22 22 22 22 21 21 20 20 21 21 21 20 20 20 21 21 21 21 21 21 21 21 21 21 21 22 22 22 23 23 24 25 24
25 25 24 24 24 23 21 21 21 20 20 19 19 19 18 18 17 17 17 18 19 18 18 19 19 19 19 18 18 18 18 17 18 19 19 19 19 20 20 20 21 20 21
22 22 22 21 20 20 19 19 19 18 17 17 16 16 15 15 14 14 13 14 15 15 16 16 15 15 16 15 15 15 15 15 16 16 16 16 16 16 17 17 17 18 18
20 19 19 18 17 17 16 15 15 15 14 13 13 13 12 12 12 12 11 12 12 12 13 13 12 12 12 13 13 13 13 13 13 13 13 14 14 14 15 15 14 14 14
16 16 15 14 14 14 13 12 12 13 12 11 11 11 10 10 9 10 10 10 10 10 9 9 10 10 10 10 10 10 10 10 10 11 11 11 11 11 11 11 12 11 11
14 14 13 13 13 12 11 11 10 9 9 9 9 9 9 8 8 7 6 6 7 7 7 7 7 7 7 6 7 7 7 7 7 8 8 8 8 8 8 9 9 9 10
12 11 11 11 11 10 9 8 7 7 7 7 7 7 6 6 6 5 4 4 4 4 4 4 4 5 5 4 4 3 4 5 5 6 6 6 6 6 7 7 7 7 8
10 9 9 8 8 7 7 6 5 5 5 5 5 5 5 4 3 3 4 3 2 3 2 2 2 3 3 3 3 3 3 3 3 4 4 4 4 5 6 6 7 7 7
8 7 7 6 6 6 5 5 5 4 4 5 5 5 5 4 4 3 4 4 4 3 4 4 5 5 5 5 4 3 4 4 4 4 4 4 4 5 5 6 6 7 8
8 7 7 6 6 6 5 5 5 5 5 5 6 6 6 6 5 6 6 6 7 7 7 7 7 7 7 6 5 5 5 5 5 4 4 5 5 6 6 6 7 7 8
9 8 8 7 7 7 7 7 7 6 7 7 7 7 8 8 8 8 9 9 9 9 9 8 8 7 7 7 6 6 6 6 6 6 6 6 6 6 7 7 7 8 8
10 10 10 9 9 9 9 9 9 9 9 10 10 10 11 11 11 11 11 10 10 10 9 8 8 8 8 8 8 7 7 7 8 8 8 7 8 8 8 8 8 9 9
11 11 11 11 10 10 11 11 11 11 12 13 13 13 13 13 12 12 12 12 11 10 10 9 9 10 10 9 9 8 8 8 8 8 8 9 9 9 9 9 9 10 10
12 12 12 12 12 12 13 13 13 13 14 14 15 15 14 14 14 14 13 12 12 11 11 11 11 11 11 11 10 9 9 9 9 9 9 10 10 10 10 10 11 11 12
12 13 13 13 13 14 14 14 14 14 14 15 15 15 15 15 14 14 14 14 13 12 12 12 12 12 12 12 11 10 10 9 9 9 10 11 11 11 12 12 13 13 14
12 13 13 13 14 14 14 14 14 14 15 15 15 15 15 15 14 14 14 13 13 13 13 13 13 12 12 12 12 11 11 11 11 11 11 12 12 13 13 14 15 16 17
12 13 13 13 14 14 14 14 14 14 15 15 14 15 15 15 14 14 14 14 14 14 13 13 13 12 12 12 12 12 12 12 12 13 13 13 14 14 15 15 16 18 19
11 12 12 13 14 14 14 14 14 14 14 13 14 14 14 13 13 13 14 14 13 13 13 13 13 13 13 13 13 13 13 12 13 15 15 15 16 16 17 17 18 19 20
10 11 11 12 12 13 13 13 13 13 12 12 13 13 12 12 13 13 13 13 13 13 13 13 13 13 13 14 14 14 14 14 15 16 16 17 17 18 19 19 20 21 22
9 9 10 11 11 11 11 12 12 12 12 12 12 12 12 11 12 12 12 12 12 12 13 13 13 13 14 14 14 15 16 16 17 18 18 19 20 20 21 22 22 23 24
7 8 8 9 9 9 10 10 10 10 11 11 11 11 11 11 10 11 11 11 12 12 13 13 14 14 15 15 16 17 17 18 19 20 20 21 22 23 24 24 25 26 27

GEFSGL_500_meanwind_144.txt.gz
Wind_Speed
29 29 28 28 28 27 27 27 27 27 27 26 26 25 25 25 25 25 24 24 24 24 24 25 26 26 27 27 28 28 28 28 28 28 28 28 28 28 28 28 28 29 29
28 28 28 28 28 28 27 27 27 27 27 26 26 26 25 25 25 24 24 24 24 23 23 24 25 25 26 26 26 26 26 26 26 26 27 27 27 27 27 27 27 27 28
27 27 27 27 27 27 27 27 27 27 27 26 25 25 24 24 24 25 24 24 23 23 23 23 23 24 24 25 25 25 24 24 24 25 25 26 26 26 26 26 26 26 26
25 25 26 25 25 25 25 25 25 25 24 24 24 23 24 24 23 23 23 22 22 22 22 22 22 22 22 22 22 22 22 22 22 22 23 24 24 25 25 25 25 25 26
24 23 23 23 23 23 23 23 22 21 21 21 21 21 22 21 21 21 21 21 21 20 20 20 20 19 19 18 19 19 20 20 20 20 20 20 21 22 23 23 23 23 23
22 21 20 20 20 20 20 20 19 19 19 19 20 20 19 19 20 20 20 20 19 18 18 18 18 18 17 17 18 17 17 17 17 17 17 18 18 19 19 20 20 20 20
19 18 18 18 18 18 18 18 18 19 19 19 18 18 18 17 17 17 16 16 16 16 16 16 16 15 16 15 15 15 15 15 15 15 15 16 16 16 16 17 17 17 18
16 16 17 17 16 17 16 17 17 17 16 15 15 15 14 14 13 12 12 13 13 13 13 12 12 12 12 11 12 13 12 12 12 12 12 13 13 13 13 14 14 15 15
15 14 15 15 15 15 15 16 15 14 13 13 12 11 11 10 10 10 11 11 10 10 10 9 9 9 8 9 10 10 10 9 9 9 9 10 10 10 10 10 11 11 12
12 13 13 13 14 14 14 13 13 13 12 11 10 9 8 8 8 8 8 7 6 6 6 6 6 6 6 6 7 6 6 6 6 6 6 6 6 7 7 7 8 9 9
11 11 12 12 12 13 12 11 11 10 9 8 7 7 6 6 6 5 4 3 2 2 2 2 2 2 2 2 2 3 3 3 3 3 3 3 4 5 5 5 6 6 7
10 10 10 10 10 10 9 9 8 7 6 6 5 5 5 5 5 5 5 4 4 3 2 2 2 2 3 2 2 1 1 0 0 0 0 1 2 3 3 4 5 5 6
9 9 9 8 8 8 7 6 6 6 6 6 6 6 6 7 7 7 7 7 8 7 7 6 6 6 6 5 5 4 4 4 3 3 3 2 3 3 3 3 4 5 6
8 8 8 7 7 7 7 7 7 7 7 7 7 8 8 8 8 9 9 9 9 9 10 10 9 8 8 7 7 7 7 6 5 4 4 4 4 4 4 4 5 6 6
8 8 8 8 8 8 8 9 8 9 9 8 9 9 10 10 11 11 11 11 11 11 11 11 10 10 10 9 8 8 8 7 6 6 5 5 5 5 5 5 6 6 7
9 9 9 10 10 11 11 11 11 11 10 10 10 10 11 11 11 11 11 11 11 11 11 12 12 11 10 10 9 9 8 8 8 7 7 6 6 6 6 6 7 7 8
11 11 11 11 12 12 13 13 13 13 13 12 12 12 12 12 12 12 12 12 11 12 12 12 12 11 11 10 10 10 9 9 9 8 8 8 8 8 8 8 8 9 10
11 12 12 12 12 12 13 13 13 14 14 14 14 14 14 14 13 13 13 13 13 14 14 13 12 12 11 10 10 10 10 9 9 9 9 9 9 9 10 10 10 10 12
12 12 12 12 12 12 13 13 14 14 15 15 15 16 16 16 15 14 14 14 14 14 13 13 12 11 11 11 10 9 9 10 10 10 10 10 10 10 11 12 12 13 13
11 11 12 12 12 13 13 14 14 14 15 16 16 16 16 16 15 15 15 15 14 14 14 13 12 12 11 11 10 10 10 10 10 10 10 11 12 12 13 14 14 15 16
11 11 12 12 12 13 13 13 14 14 15 15 15 15 15 15 15 15 14 14 14 14 13 13 12 12 12 11 11 11 11 11 11 12 12 13 13 14 15 15 16 17 18
11 11 12 12 12 13 13 13 14 14 14 14 14 14 14 14 14 14 14 14 13 13 12 12 12 12 12 12 11 11 12 12 12 13 13 14 15 15 16 17 18 19 20
10 11 11 12 12 12 12 13 13 13 13 13 13 13 13 13 13 13 13 13 12 12 12 12 12 12 12 12 12 12 13 13 13 14 15 16 17 18 19 19 20 21 22
9 9 10 10 11 11 11 11 11 11 11 11 11 11 11 12 12 12 11 11 11 11 11 11 11 12 12 12 13 13 14 14 15 16 17 18 19 20 20 21 22 23 25
7 8 8 8 9 9 8 8 9 9 9 9 9 9 9 10 10 10 10 10 10 10 10 11 11 12 12 13 14 14 15 16 17 18 19 20 21 22 22 23 24 25 27
5 6 6 6 6 6 6 6 6 7 7 7 7 7 7 7 7 7 7 8 8 9 10 11 12 13 14 14 15 16 17 19 20 20 21 22 23 24 25 26 27 28 29

GEFSGL_500_meanwind_150.txt.gz
Wind_Speed
28 28 28 28 28 28 29 29 28 28 28 28 27 27 27 27 27 26 26 26 26 26 26 27 28 28 27 27 27 28 28 27 27 28 29 30 31 31 31 32 32 32 32
28 27 27 28 28 28 28 28 28 28 27 27 27 27 27 26 26 26 26 26 26 26 26 26 26 27 27 27 27 27 27 27 27 28 28 29 29 30 30 30 30 30 31
27 27 27 27 27 27 27 26 26 26 25 24 25 25 25 25 26 26 26 26 26 26 26 25 25 26 26 26 26 26 26 26 26 27 27 28 28 28 28 29 29 29 29
25 25 25 25 25 25 25 24 24 24 24 23 23 23 23 23 24 24 24 24 24 24 24 23 23 23 23 23 23 23 24 24 24 25 25 26 26 26 26 26 27 27 27
22 22 22 22 23 23 22 22 22 21 21 21 21 21 21 21 21 21 22 21 21 21 21 20 20 20 20 20 20 20 21 21 22 22 22 23 23 23 23 23 24 23 23
19 20 20 20 20 20 20 19 19 19 19 19 19 19 19 19 19 19 19 19 18 18 18 17 17 17 17 17 17 17 18 19 19 19 19 18 19 19 19 19 19 19 19
17 18 17 17 18 18 17 17 17 17 17 17 17 17 17 17 17 16 16 15 15 15 15 15 15 14 14 14 14 14 15 16 16 15 16 16 16 16 16 16 15 15 16
15 15 15 16 16 16 15 15 15 15 15 15 15 15 15 14 13 12 12 12 12 12 12 12 11 11 11 11 11 12 12 12 12 12 12 12 12 13 12 12 12 12 13
14 14 14 14 14 14 14 13 14 14 13 13 13 13 12 12 11 10 9 9 9 8 8 8 8 8 8 8 8 9 9 9 9 9 9 9 9 9 10 10 10 10 11
11 11 12 12 12 12 13 13 13 12 12 11 11 11 10 9 8 8 8 7 6 5 5 5 5 5 5 5 6 5 5 6 6 6 6 6 6 7 8 8 8 9 9
9 10 10 10 10 11 11 11 11 10 9 9 8 8 8 8 8 8 8 6 5 5 5 4 3 3 2 2 1 1 2 3 4 4 4 4 5 5 6 6 7 8 9
8 8 8 9 10 10 10 9 8 7 7 7 7 7 7 7 8 8 8 7 7 6 7 7 6 5 5 5 4 3 2 1 0 0 1 2 2 3 4 5 6 7 8
7 7 8 8 9 9 8 8 8 7 7 6 7 7 7 7 8 9 9 9 8 8 8 9 8 8 8 7 6 5 4 5 5 4 3 2 2 2 3 4 6 8 9
7 6 6 7 8 8 8 7 8 8 8 8 8 8 8 9 10 10 10 10 10 10 10 9 9 9 9 9 9 9 9 8 8 6 5 4 4 4 4 6 7 8 9
7 7 7 7 8 9 9 9 9 9 9 9 9 9 10 10 10 10 10 11 11 11 11 11 11 11 11 10 11 11 10 10 9 8 7 6 6 6 6 7 7 8 9
8 8 8 8 9 10 10 10 10 10 10 10 11 11 11 11 11 11 11 12 12 12 12 12 11 11 11 11 11 11 10 10 9 9 8 8 8 8 8 9 9 10 10
8 8 9 9 10 10 10 10 11 11 11 11 11 11 11 11 12 12 12 12 13 12 12 11 11 11 11 11 11 11 11 10 10 9 9 9 9 10 10 11 11 12 12
8 8 9 9 9 10 10 10 10 11 11 12 12 12 12 12 12 12 12 12 12 12 12 12 12 11 11 11 11 11 10 10 10 10 10 10 10 11 12 12 13 13 14
8 8 8 8 9 10 10 11 11 11 11 12 12 11 11 11 11 12 12 12 13 12 12 12 12 12 12 12 11 11 11 11 10 10 11 11 12 12 13 14 14 15 16
8 8 8 9 9 10 10 10 10 11 11 11 11 11 11 11 11 12 12 12 12 12 12 12 12 12 12 12 12 12 12 11 11 12 12 12 13 14 15 16 17 17 18
8 8 9 9 10 10 10 11 11 10 10 10 10 10 10 10 11 11 11 11 11 11 11 11 11 11 11 11 11 12 12 12 13 13 14 14 15 16 17 18 19 20 21
8 8 8 8 9 9 10 10 10 10 10 10 9 9 9 9 9 10 10 10 11 10 11 11 11 11 11 11 11 12 12 13 13 14 15 16 17 18 19 20 20 21 22
7 7 7 7 7 7 8 8 8 8 8 8 8 8 8 8 8 8 9 9 9 9 10 10 11 11 11 11 12 13 13 13 14 15 16 17 19 20 21 21 22 23 25
5 5 5 5 5 5 6 6 6 6 6 6 6 6 6 6 6 7 7 8 8 8 9 9 10 10 11 12 13 13 14 15 16 17 18 19 21 22 23 24 25 26 27
3 3 3 3 3 3 3 3 3 4 4 3 4 4 4 5 5 6 6 7 7 8 8 9 10 11 12 13 14 14 15 16 18 19 20 22 23 25 26 27 28 29 30
1 1 1 1 1 1 1 1 1 2 2 2 2 2 3 3 4 5 5 6 7 8 9 10 11 12 13 14 15 16 17 18 20 21 23 24 26 27 28 29 30 31 32

GEFSGL_500_meanwind_156.txt.gz
Wind_Speed
27 27 27 27 27 28 28 28 29 29 29 29 29 29 29 29 30 30 30 30 30 30 29 29 29 29 29 28 28 28 29 29 29 29 29 29 30 30 30 30 30 31 31
25 25 25 25 25 26 26 27 28 27 27 27 27 27 28 28 28 29 29 29 29 28 28 28 29 29 28 28 27 28 28 28 28 28 28 28 28 29 29 29 29 29 29
25 25 24 24 24 24 25 25 25 25 24 25 25 25 26 26 26 26 26 26 27 27 27 27 27 27 27 26 26 26 26 26 26 26 26 26 27 27 28 27 27 27 27
23 23 23 22 22 22 23 23 23 22 22 22 22 22 22 23 23 23 23 23 23 24 24 24 24 23 23 23 23 24 23 23 23 23 24 24 24 25 25 25 24 24 24
21 21 21 21 20 20 20 19 19 18 18 18 18 19 19 19 19 19 19 20 20 20 20 20 20 20 20 20 20 20 20 20 20 20 20 20 20 20 21 21 21 21 21
20 19 18 18 18 17 17 16 16 16 16 16 15 16 16 16 17 17 17 17 16 16 16 16 16 16 15 16 16 17 17 17 17 17 17 17 17 17 17 17 18 18 18
16 15 15 15 15 15 15 14 14 14 14 14 14 14 14 15 14 14 14 14 13 12 12 11 11 11 12 12 13 13 13 14 14 14 14 14 14 14 15 15 15 15 15
14 14 14 14 14 14 13 12 12 12 12 13 12 12 13 12 11 11 11 10 9 9 8 8 8 8 8 8 9 9 9 10 11 11 11 11 11 12 11 11 12 12 12
13 13 13 13 13 12 12 10 9 10 11 10 11 11 10 9 8 8 8 7 7 6 6 6 6 6 5 5 5 5 6 7 8 8 9 9 8 8 8 8 8 9 9
11 11 11 11 11 11 10 8 8 8 9 9 10 9 9 8 7 6 6 6 6 5 4 4 4 3 3 2 2 2 3 3 4 5 5 5 5 6 6 6 7 8 8
9 9 9 10 10 9 7 6 6 7 7 8 8 8 8 6 5 6 5 5 6 6 6 5 4 4 3 2 2 1 1 0 0 1 2 2 2 3 3 4 5 6 7
7 7 7 8 7 6 6 6 6 7 7 6 7 7 7 6 6 6 6 7 7 8 8 8 7 7 7 6 5 5 4 4 3 3 2 2 1 1 1 2 3 5 6
5 6 6 6 6 5 5 6 6 6 6 6 6 7 8 8 8 8 8 9 9 10 10 10 10 9 9 8 7 6 6 6 6 4 4 3 3 2 2 2 3 4 6
4 5 5 6 7 7 6 6 6 6 6 6 6 7 8 9 9 9 9 9 10 11 12 12 11 11 10 9 9 8 7 7 7 6 6 5 5 5 4 4 4 5 7
4 5 6 6 7 7 7 7 7 7 7 7 7 7 8 9 9 10 10 10 10 11 11 12 12 12 11 10 10 10 9 9 8 8 8 8 7 6 6 6 7 7 8
4 5 5 6 7 8 8 9 9 8 8 8 8 9 9 10 10 10 11 11 11 11 11 11 11 11 11 11 10 10 9 9 9 9 9 8 7 7 7 7 8 9 10
5 5 6 6 7 8 8 9 9 9 10 10 10 10 10 10 10 10 11 11 11 11 11 11 11 10 10 10 10 11 11 11 10 10 9 8 8 8 8 9 10 11 12
5 6 6 6 7 7 8 9 9 10 10 10 10 10 10 10 11 11 12 11 12 12 12 12 12 12 12 12 12 11 11 11 10 10 10 10 10 10 10 11 11 12 13
6 5 6 6 6 7 7 8 9 9 9 9 9 9 9 9 10 10 11 11 11 11 11 11 12 12 12 12 12 12 11 11 11 10 10 11 11 11 12 12 13 14 15
6 6 5 5 6 7 7 7 7 7 7 7 8 8 8 9 9 9 8 9 9 9 10 10 10 10 11 11 11 11 11 11 11 10 11 11 12 13 13 14 15 16 18
5 5 5 5 5 6 6 6 6 6 6 6 6 6 7 7 7 7 7 7 7 8 8 8 8 9 9 9 9 9 10 10 10 10 11 12 13 14 15 16 17 19 20
4 4 5 5 5 4 4 4 4 4 4 4 4 5 5 5 5 5 6 6 6 6 6 7 7 7 7 8 8 9 9 10 10 11 12 13 14 16 17 18 20 21 22
4 4 3 3 3 2 2 2 2 2 2 2 2 3 2 3 3 3 4 5 5 5 5 6 7 7 7 8 9 9 10 11 12 13 14 15 16 17 19 21 22 23 25
3 3 3 2 2 1 1 1 1 1 1 1 1 1 1 1 2 2 3 4 4 5 5 6 6 7 8 9 10 10 11 12 13 14 15 16 18 19 21 22 24 25 27
2 2 2 2 1 1 1 1 2 2 2 2 3 3 3 3 3 4 4 5 5 6 6 7 8 9 9 10 11 12 12 13 15 16 17 19 20 21 23 24 26 27 29
4 4 3 3 3 4 4 4 4 4 4 4 4 5 5 6 6 6 7 7 8 8 9 10 10 11 11 12 13 14 15 16 17 18 20 21 22 24 25 27 28 29 31

GEFSGL_500_meanwind_162.txt.gz
Wind_Speed
25 25 25 26 26 27 27 27 26 26 27 26 26 26 26 27 27 28 29 29 28 29 29 28 28 29 29 28 28 28 28 28 28 28 27 27 26 26 26 26 26 25 26
25 25 25 25 25 25 25 25 25 24 24 24 23 24 24 24 25 26 26 26 26 26 27 27 27 27 27 27 27 26 27 27 27 26 25 25 25 25 25 24 24 25 25
24 24 25 24 24 24 23 23 23 21 21 21 21 20 21 22 23 23 23 23 23 23 24 24 24 24 25 25 25 25 25 24 24 23 23 23 23 23 23 23 22 22 22
23 23 23 22 22 21 21 21 20 19 19 18 18 18 19 19 20 20 21 20 21 20 21 21 22 22 22 22 23 23 23 22 21 21 20 20 21 21 21 21 20 20 19
21 20 20 20 20 19 18 17 17 17 17 16 16 16 17 17 17 18 18 18 18 18 18 18 18 18 19 19 19 19 19 19 18 18 18 18 18 18 18 18 18 18 17
19 18 18 18 17 17 16 16 16 16 15 15 15 15 15 16 16 16 16 16 16 15 15 15 15 15 15 15 14 14 15 15 15 15 15 15 15 15 15 15 15 15 14
18 17 17 16 15 15 14 14 14 15 14 14 14 14 15 15 15 15 14 14 13 13 13 13 13 12 11 10 10 10 11 12 12 12 12 12 12 12 12 12 12 12 12
16 15 15 14 14 14 13 13 13 14 12 11 12 13 13 13 13 13 13 13 13 12 11 11 10 9 8 7 7 8 8 8 9 10 10 10 10 9 9 9 9 10 10
14 13 13 12 12 12 11 11 11 11 11 10 11 12 12 12 12 12 12 12 11 10 10 9 8 7 7 6 5 5 5 5 5 5 6 6 6 6 6 7 7 7 8
12 12 11 11 11 10 10 10 9 9 10 9 10 9 10 12 12 11 10 10 10 9 9 7 7 6 5 5 4 3 2 2 2 2 3 3 3 3 3 4 5 5 5
11 10 10 9 9 9 8 8 8 8 8 8 9 9 10 11 11 10 9 9 9 9 9 8 7 7 6 5 4 3 2 2 1 1 1 1 1 1 1 2 3 4 4
9 8 7 7 8 8 7 7 8 8 8 7 9 9 10 11 11 11 10 9 9 9 9 8 8 8 8 6 5 4 4 4 3 2 2 2 2 2 2 3 3 3 4
6 6 6 6 7 8 7 7 7 8 8 8 9 9 10 10 10 10 10 10 10 10 9 9 9 9 8 8 8 7 6 5 5 4 4 4 3 4 3 4 4 4 4
5 5 5 6 7 7 7 7 7 8 7 8 8 9 10 9 9 9 9 10 10 10 10 10 10 10 9 9 9 8 7 7 6 6 5 5 5 5 5 4 4 4 5
5 5 5 5 6 7 7 7 7 7 8 8 8 9 9 9 9 9 10 10 10 10 11 11 11 10 10 9 9 9 8 7 6 7 6 6 6 5 6 5 5 6 6
4 4 4 5 6 6 7 8 8 8 8 8 8 9 9 9 10 10 10 11 11 10 11 11 11 10 10 10 9 9 8 8 7 7 7 6 6 6 6 7 7 7 8
4 4 4 5 6 7 7 7 8 9 9 8 9 9 9 9 9 9 10 10 11 11 11 11 10 10 10 10 9 9 9 8 8 7 7 7 7 7 7 8 9 9 10
3 3 3 4 5 6 7 7 7 7 7 8 8 9 8 8 8 8 9 9 9 10 10 10 11 10 10 10 9 9 9 9 8 8 7 7 7 7 8 9 9 10 12
3 3 3 4 5 6 6 7 7 6 6 6 6 7 7 7 8 8 8 8 8 8 9 9 9 9 9 9 9 9 9 9 9 9 9 9 9 9 9 10 11 12 13
3 3 3 3 4 5 5 5 6 5 5 6 6 6 6 6 6 6 6 7 7 8 8 9 9 9 9 9 10 10 10 9 9 9 9 9 10 10 11 12 13 14 16
3 3 3 3 4 4 5 4 4 4 4 5 5 5 5 6 6 6 6 6 7 7 8 8 8 9 9 9 9 10 10 10 10 10 10 10 11 12 13 14 16 17 19
3 3 3 4 4 4 4 4 4 4 4 4 4 4 5 5 5 6 6 7 7 8 8 9 9 10 10 10 10 10 11 11 12 12 12 13 13 14 15 17 18 20 21
4 4 4 5 5 5 4 4 5 5 5 5 5 5 6 6 7 7 8 9 9 9 10 10 11 11 11 11 11 12 12 13 14 14 15 15 16 17 18 20 21 22 24
4 5 5 5 5 5 5 5 6 6 7 7 7 7 8 8 9 10 10 10 11 12 12 12 12 13 13 13 13 14 15 16 17 18 18 19 19 20 21 22 24 25 27
5 5 5 5 6 6 6 7 7 8 8 9 9 9 10 11 11 12 13 13 14 14 14 15 15 16 16 16 16 17 18 18 19 20 21 23 23 24 25 26 27 28 29
6 6 6 7 7 8 8 9 9 10 11 11 12 12 12 13 14 14 15 15 15 16 17 17 18 18 19 19 19 20 20 22 23 23 24 25 26 27 28 29 30 31 32

GEFSGL_500_meanwind_168.txt.gz
Wind_Speed
22 22 22 23 23 23 23 22 22 22 22 22 22 21 22 22 23 23 23 24 24 25 25 25 25 25 25 25 26 26 26 25 25 24 25 25 25 25 26 26 26 26 26
22 21 21 22 22 22 21 20 20 21 21 20 20 21 21 21 22 22 22 23 23 23 23 23 22 23 23 23 23 23 24 24 23 22 23 23 23 23 24 24 24 25 25
21 21 21 20 20 20 19 19 19 19 19 19 20 20 20 20 20 20 21 20 20 21 21 20 20 20 20 20 20 20 21 21 21 21 22 22 22 21 21 22 22 22 22
20 19 19 19 18 18 17 17 17 17 17 17 18 18 18 18 18 18 18 17 18 17 17 17 17 17 17 17 18 18 18 19 20 20 20 20 20 19 19 19 19 19 20
18 17 17 17 17 17 16 15 15 15 16 16 16 16 16 15 15 15 15 15 15 14 14 15 15 15 15 15 16 17 17 17 17 17 17 17 17 17 16 16 17 17 17
15 16 16 16 15 15 15 15 14 14 14 14 13 13 13 13 13 13 14 13 13 13 14 13 13 12 12 12 13 13 13 13 13 13 13 12 12 13 13 14 14 14 14
13 14 15 15 14 14 14 13 13 12 12 12 12 11 11 11 12 12 12 12 11 11 11 11 10 10 10 10 9 9 8 8 8 9 8 8 9 10 10 11 11 12 12
11 12 13 13 12 11 11 11 10 10 10 10 10 11 11 11 11 12 11 11 10 10 9 8 8 7 7 7 6 6 5 5 4 4 5 5 6 6 7 7 7 8 8
10 11 11 10 10 9 10 10 10 9 8 8 9 10 10 11 10 10 10 10 9 9 8 7 7 7 7 6 4 3 3 2 2 2 3 4 4 4 3 4 5 5 5
9 10 10 9 9 9 9 9 9 8 8 8 8 8 9 9 10 10 9 9 9 9 8 8 7 6 6 5 4 4 3 2 1 0 1 2 3 2 1 2 3 4 4
9 8 8 9 8 8 8 8 8 8 7 7 7 8 8 9 9 9 9 9 9 9 9 9 9 7 6 6 5 5 4 3 3 2 1 0 1 2 2 2 3 3 4
7 7 7 7 7 7 7 7 7 7 7 7 8 8 8 9 9 9 9 9 10 9 9 9 9 9 7 7 6 5 4 4 4 3 2 1 1 1 1 2 2 3 3
5 6 6 5 6 6 6 5 7 7 7 7 7 8 8 8 8 8 8 9 9 9 9 9 9 9 9 8 7 6 5 4 4 4 3 2 1 2 3 2 2 2 3
4 5 5 5 5 5 5 6 6 7 7 7 7 8 7 8 8 8 9 9 9 10 10 10 10 9 9 8 7 6 6 5 4 4 3 3 3 3 3 3 3 4 5
4 4 5 5 5 5 5 6 6 7 7 8 8 7 7 7 8 9 9 9 10 10 10 10 10 9 8 8 8 8 7 6 5 4 3 3 4 4 3 4 5 5 6
3 4 4 5 5 5 5 6 6 7 7 7 7 7 6 6 7 8 9 9 9 10 10 10 9 9 9 8 8 7 7 6 6 5 4 4 4 4 4 5 5 6 7
4 4 5 5 5 5 5 5 6 6 6 6 6 6 6 6 7 7 7 8 8 9 9 9 8 8 8 8 8 8 7 7 6 5 5 5 5 6 6 6 7 8 8
4 4 4 4 4 4 4 4 5 6 6 6 6 5 5 6 7 7 7 7 7 7 7 7 8 8 8 8 8 8 7 7 6 6 6 6 7 8 8 9 10 10 11
4 4 4 4 4 4 4 4 4 5 5 5 5 4 4 5 6 6 6 6 6 6 7 7 8 7 7 8 8 7 7 7 7 8 8 8 9 9 10 11 12 12 13
4 4 4 4 4 4 4 4 5 5 5 5 4 4 5 5 5 5 5 6 6 6 7 7 8 8 8 8 8 8 8 9 9 10 10 11 10 11 12 12 12 14 15
4 4 4 4 5 5 5 5 5 6 5 5 5 5 6 6 6 6 6 6 7 8 8 8 8 9 9 10 10 10 10 11 11 11 12 12 13 14 14 15 16 17 18
4 4 4 4 5 5 5 6 6 6 6 6 7 7 7 7 8 8 8 9 9 10 10 10 11 11 12 12 12 13 13 14 14 14 15 15 16 17 18 18 19 20 21
5 5 5 5 5 6 6 7 7 7 8 8 9 9 9 9 9 10 11 11 12 12 13 13 14 14 14 14 15 15 16 17 17 17 17 18 19 20 21 22 22 23 24
6 6 6 6 7 7 8 8 8 9 9 10 10 11 11 12 12 13 13 14 15 16 16 16 16 17 17 17 18 18 19 19 19 20 20 21 22 23 23 24 25 26 26
7 7 8 8 8 9 9 9 10 10 11 12 12 13 13 14 15 15 16 16 17 18 19 20 20 20 20 20 21 22 22 22 22 23 24 24 25 26 27 27 28 28 29
8 8 9 10 10 11 11 11 11 12 13 13 14 15 15 16 16 17 18 19 19 20 21 22 22 23 24 24 24 25 25 26 26 26 27 27 28 29 29 30 31 31 32

GEFSGL_500_meanwind_174.txt.gz
Wind_Speed
21 21 21 21 22 23 23 23 23 22 23 23 23 24 24 24 23 23 22 22 22 22 22 22 22 22 22 24 24 24 25 25 25 24 24 25 25 25 25 27 28 29 30
20 21 20 20 20 21 22 21 21 22 22 23 23 23 22 22 22 22 21 21 20 20 20 20 20 20 21 22 22 23 23 22 22 22 22 23 24 25 24 24 26 26 26
19 20 19 19 20 21 21 20 21 21 21 22 22 21 21 20 20 19 18 18 18 18 18 18 18 19 19 19 19 19 20 20 20 20 21 22 23 23 22 22 23 24 24
18 18 19 19 19 19 19 19 18 19 19 19 19 19 18 18 18 17 17 16 16 16 16 17 17 17 17 17 17 17 17 18 18 19 19 19 19 19 20 19 20 19 19
17 17 18 18 18 17 17 17 17 17 16 16 16 16 16 17 16 16 16 15 14 14 14 14 14 15 14 15 15 15 16 15 16 16 16 15 16 16 16 16 16 16 16
15 16 16 16 16 16 16 16 16 15 14 14 15 15 15 14 14 14 14 13 12 12 12 12 12 13 13 13 13 13 13 13 13 13 13 12 12 13 13 13 14 14 14
14 14 14 14 15 15 15 15 14 14 14 14 14 14 13 13 13 12 12 11 11 11 11 11 12 12 11 10 10 10 10 10 10 10 9 8 9 10 10 10 11 11 11
11 12 12 12 13 13 13 13 13 13 13 13 13 13 13 12 12 11 11 10 10 10 10 11 11 11 10 9 9 9 9 8 7 6 6 5 5 6 7 7 8 8 8
10 10 11 11 11 11 11 11 11 11 12 12 12 12 11 11 11 11 10 10 10 11 11 11 11 10 9 8 8 8 8 8 6 5 5 4 4 5 5 5 5 5 6
9 9 8 9 9 10 10 11 11 12 12 12 11 11 11 11 11 11 11 10 11 11 11 10 10 9 8 8 8 8 7 6 5 5 4 3 2 3 3 3 3 4 5
7 7 7 7 8 9 10 10 10 11 11 11 11 10 10 10 11 10 10 11 11 11 11 10 9 8 8 8 9 8 7 6 5 5 4 3 2 2 2 3 3 4 4
6 6 6 7 8 9 9 9 10 10 10 10 10 10 9 9 10 10 10 10 10 11 10 9 9 8 8 8 9 9 7 6 5 5 5 4 3 3 3 4 4 4 4
6 6 6 7 7 8 9 9 9 9 9 9 9 9 9 9 9 9 9 9 9 9 9 9 9 9 9 9 9 8 8 7 6 5 5 4 4 4 4 4 5 6 6
4 5 5 6 7 8 8 8 8 8 9 9 9 10 9 10 9 9 9 9 8 9 9 9 9 9 9 9 9 8 8 7 7 6 6 6 5 4 5 6 6 7 7
3 4 5 6 7 7 8 8 8 9 9 9 9 9 9 9 9 9 8 8 9 9 8 9 9 9 9 8 8 8 7 7 7 6 6 6 6 6 6 7 7 8 9
3 4 5 7 7 7 7 8 8 8 8 8 8 9 9 9 9 9 10 9 9 9 9 9 9 9 8 8 8 9 8 7 8 8 7 7 6 7 7 8 9 10 11
4 5 5 6 7 7 7 8 8 8 8 8 8 8 9 9 9 9 9 9 9 9 9 9 9 10 9 9 9 9 9 9 9 9 9 9 9 9 9 10 11 12 13
4 4 5 6 7 7 8 8 9 9 9 9 9 9 10 10 10 10 9 9 10 10 10 10 10 10 10 10 11 11 11 11 11 11 11 11 11 11 12 13 13 14 15
5 5 5 6 7 7 8 8 9 9 10 9 10 10 10 10 11 11 10 11 11 11 11 11 11 11 11 12 12 12 12 12 13 13 13 13 14 14 15 15 16 17 17
5 6 6 7 7 8 9 9 10 10 10 11 11 11 11 11 12 12 12 12 13 12 12 13 13 13 13 13 14 14 14 14 15 15 15 15 16 17 17 17 18 19 20
5 6 7 8 8 8 9 10 11 11 11 12 12 12 13 13 13 14 14 14 14 15 14 15 15 15 15 15 16 16 16 16 16 17 17 19 19 20 20 21 21 22 23
6 6 7 8 9 9 10 10 11 12 12 13 14 14 14 15 15 16 16 16 16 17 17 17 17 17 18 18 19 19 19 20 20 21 21 21 22 22 23 24 24 25 25
6 7 8 9 9 10 11 11 12 13 13 14 15 15 16 17 17 17 17 18 18 19 19 19 19 20 20 21 21 22 22 22 23 23 23 24 25 25 26 26 26 27 28
7 8 9 9 10 11 12 13 14 14 15 15 16 17 17 18 18 19 19 20 20 21 21 22 22 22 23 23 24 24 24 24 25 25 26 26 27 28 28 28 29 29 30
8 9 10 11 12 13 14 14 15 16 16 17 18 19 20 20 21 21 22 22 22 22 23 24 24 25 25 25 26 26 27 27 28 28 28 28 29 29 30 30 31 31 32
10 11 11 12 14 15 15 16 17 18 19 20 20 21 22 22 23 23 24 24 24 25 25 25 26 26 26 26 27 28 29 30 30 31 31 31 32 32 33 33 33 33 34

GEFSGL_500_meanwind_180.txt.gz
Wind_Speed
20 20 19 18 18 19 20 20 20 20 20 21 21 22 22 23 23 23 23 22 22 21 20 20 21 22 22 22 21 21 22 22 22 21 21 22 23 23 24 25 26 27 27
18 18 17 17 17 18 19 19 19 19 19 20 20 20 20 21 22 21 21 20 19 18 17 17 18 19 19 18 19 19 20 20 21 21 20 21 22 22 22 23 24 25 25
16 16 16 17 17 17 18 18 18 18 19 19 19 18 18 19 19 19 19 18 17 15 15 15 15 15 15 15 16 17 18 19 19 20 20 20 21 21 21 22 22 22 23
15 15 16 16 17 17 17 17 17 18 18 18 18 18 18 18 18 17 16 15 14 13 14 14 14 13 13 13 14 15 16 17 18 19 19 18 18 19 19 19 19 20 20
14 15 15 16 16 17 17 16 16 17 17 17 17 17 17 17 17 16 14 13 12 12 12 12 11 12 12 12 13 13 14 15 16 16 16 15 15 16 16 16 16 16 16
14 15 14 14 15 15 16 15 15 14 14 14 15 16 16 16 15 14 14 12 12 11 10 9 10 10 11 11 11 12 12 13 12 13 13 13 13 13 13 13 14 15 15
13 13 13 14 14 13 13 14 13 12 12 13 14 15 15 14 14 15 14 12 11 10 9 9 9 9 10 10 10 11 11 11 11 10 10 10 10 10 11 11 12 13 13
12 12 12 12 12 11 11 11 11 11 12 13 14 14 14 13 13 13 12 11 10 10 9 9 9 9 10 9 9 9 9 9 9 8 8 7 7 8 8 9 10 10 11
10 10 10 11 11 11 10 10 10 11 12 13 13 13 13 12 12 12 11 10 9 9 9 8 8 9 9 9 8 8 9 9 8 7 7 6 7 7 7 7 8 9 9
8 8 8 9 10 10 10 10 10 10 11 12 12 13 12 12 12 11 10 10 9 9 8 8 9 9 8 9 8 8 8 8 8 7 6 7 6 6 6 6 7 7 7
7 7 7 8 8 8 9 9 10 10 11 11 12 12 12 12 11 11 10 9 9 8 8 8 8 8 8 8 8 8 8 8 7 6 6 6 6 6 6 6 7 7 8
6 7 7 7 7 8 8 8 9 10 11 11 12 12 11 11 11 10 10 9 9 9 9 8 8 8 8 8 8 8 8 8 7 7 6 6 6 6 6 6 7 8 9
5 5 5 6 6 6 7 8 9 10 11 11 11 11 11 11 11 10 10 9 9 9 9 9 9 8 8 8 8 8 7 7 7 7 7 7 7 6 6 7 7 8 9
3 3 4 4 4 6 7 8 9 10 10 11 11 10 10 10 10 11 10 10 10 10 9 9 9 9 9 9 9 8 8 8 8 8 8 8 7 8 9 10 10 10 11
3 3 3 4 5 6 7 8 9 9 10 10 10 10 10 10 10 11 11 11 11 10 11 11 10 10 10 9 9 9 10 10 10 10 10 9 9 10 10 11 11 12 13
1 2 3 3 4 6 7 8 9 10 10 11 11 11 11 11 11 11 12 12 12 12 12 12 11 11 11 11 11 11 12 12 12 12 12 12 12 12 12 13 13 14 14
2 2 2 3 5 6 7 8 9 10 10 10 11 11 11 11 11 12 13 13 13 13 13 13 13 13 13 12 13 12 13 13 14 14 14 14 14 14 15 15 15 15 16
1 2 3 4 5 7 8 9 10 10 10 10 11 11 11 12 12 13 13 14 14 14 14 14 14 14 14 14 14 14 14 15 16 16 16 16 16 16 17 17 17 17 18
1 2 3 4 6 7 8 9 10 10 10 10 11 12 13 14 14 14 15 15 15 15 15 15 15 16 16 16 16 16 17 17 17 18 18 18 18 18 18 19 19 20 20
1 2 3 5 6 8 9 10 10 11 11 11 12 13 14 15 16 16 17 17 17 17 17 18 18 18 18 17 17 18 18 19 20 20 20 20 20 20 21 21 22 22 23
2 3 4 6 7 8 9 11 11 12 12 13 14 15 16 17 17 18 18 19 19 19 19 20 20 20 20 20 20 21 21 21 21 22 22 22 22 23 24 24 25 25 26
2 4 6 7 8 9 10 11 12 13 13 14 16 17 18 18 18 19 20 21 21 21 21 21 22 22 23 23 23 23 23 23 23 24 24 25 26 26 27 27 28 28 28
3 5 7 8 9 10 12 13 14 14 15 16 17 18 19 19 20 20 21 22 22 23 23 23 24 24 24 24 24 24 25 25 25 25 26 27 28 28 29 29 29 30 31
5 6 8 9 10 12 13 14 15 16 17 18 19 20 20 21 21 22 23 24 24 25 26 26 26 26 26 26 26 26 27 27 28 28 29 30 30 30 31 31 32 32 32
7 8 9 10 12 13 14 15 16 18 19 20 20 21 22 23 24 25 25 26 26 27 27 28 27 27 27 27 28 28 29 29 30 31 31 31 32 32 33 33 33 34 34
8 10 11 12 13 14 15 17 18 19 20 21 21 22 24 25 26 27 27 28 28 29 29 28 28 28 28 28 29 30 31 31 31 32 32 32 33 33 33 33 33 33 34

GEFSGL_500_meanwind_186.txt.gz
Wind_Speed
19 20 21 21 22 22 22 21 21 22 22 22 21 21 21 21 21 22 23 22 22 22 23 22 22 21 21 21 21 21 22 22 21 21 21 22 22 22 22 22 22 23 23
19 19 19 20 21 20 20 20 21 21 21 21 20 20 21 21 21 21 21 20 20 20 20 19 18 18 18 19 18 18 18 18 19 20 20 20 20 20 20 20 21 21 21
17 17 18 18 19 18 18 19 19 19 20 20 20 20 21 20 20 19 19 19 18 18 18 17 16 16 17 16 16 16 16 17 18 19 18 18 18 19 19 19 19 20 20
16 16 17 17 17 16 17 17 17 18 19 19 20 20 20 19 18 17 17 18 17 17 17 17 16 15 14 14 15 16 16 16 17 17 16 16 16 17 17 18 18 19 19
16 16 16 16 16 15 15 15 15 17 18 18 19 19 19 18 17 16 17 18 17 17 16 15 14 13 13 14 14 14 14 15 15 14 15 15 15 15 15 16 16 16 16
15 15 15 15 15 15 14 14 15 16 16 17 17 18 17 17 16 16 16 16 15 15 15 14 14 13 13 13 13 13 13 13 13 13 13 14 15 14 14 13 14 14 14
14 14 13 13 13 13 14 14 14 15 15 16 17 17 16 16 16 15 15 15 14 15 14 14 13 13 12 12 12 12 13 13 13 14 13 13 14 14 13 13 13 12 13
13 13 12 12 12 13 13 13 14 15 15 16 16 16 16 16 15 15 15 15 15 15 15 14 13 12 12 12 12 12 12 13 13 13 13 13 13 13 12 12 13 12 12
12 11 11 11 11 12 12 13 14 14 15 15 15 16 15 15 14 15 15 15 15 15 15 14 14 13 12 13 12 12 12 12 12 12 11 12 12 11 10 10 10 11 11
10 10 9 10 10 11 11 12 12 13 14 14 14 14 15 15 15 15 15 15 15 15 15 15 14 14 14 13 13 13 12 12 12 11 11 11 11 10 10 9 9 10 10
8 9 9 9 9 9 10 11 12 13 14 14 13 13 13 14 14 15 16 16 16 16 15 15 14 14 14 14 14 13 12 13 13 12 11 11 11 10 10 10 10 10 10
8 8 8 7 8 8 9 11 12 13 14 14 13 13 13 13 14 15 16 16 17 16 16 15 14 14 14 14 14 13 13 13 12 12 12 12 12 11 11 10 11 11 11
7 6 6 6 7 7 9 10 12 13 13 13 13 14 13 14 14 15 16 16 16 16 16 16 15 15 15 15 15 15 14 13 13 13 13 13 13 12 12 12 12 12 12
5 6 6 6 7 8 9 11 12 12 13 14 14 14 15 15 16 16 17 17 17 17 17 17 17 16 16 15 15 16 16 15 15 14 14 13 13 13 13 14 14 14 14
5 6 6 6 7 9 10 11 12 13 13 14 14 14 15 16 17 17 18 18 18 18 18 18 18 17 17 17 17 17 17 17 17 16 15 14 14 14 15 15 16 16 16
5 5 6 7 8 9 10 12 12 12 13 14 14 15 16 17 17 18 18 19 19 19 19 19 19 19 18 18 18 18 18 19 18 17 17 17 17 17 17 17 17 17 17
4 5 7 8 9 10 11 12 12 12 13 14 15 16 17 17 18 18 19 19 20 20 20 20 20 21 20 20 20 20 20 20 19 18 18 18 18 19 19 19 19 19 19
5 6 7 8 9 10 11 12 12 13 13 14 15 17 18 18 19 19 20 20 21 21 21 21 22 22 22 22 22 22 21 21 20 20 20 20 20 20 20 21 21 21 21
5 7 8 9 9 10 11 12 13 14 15 15 16 17 18 19 20 21 21 22 22 23 23 23 24 24 23 23 23 23 23 22 22 22 22 22 22 22 23 23 23 23 23
5 6 8 9 9 10 11 12 13 14 16 16 17 18 19 20 21 21 22 23 23 24 24 25 25 25 25 25 24 24 24 24 24 24 24 24 25 25 25 25 25 25 25
5 6 8 8 9 10 12 13 14 15 16 18 19 20 21 22 22 23 24 24 25 25 26 27 27 27 27 27 26 26 26 26 26 26 27 27 28 28 27 28 28 28 28
6 7 8 9 10 11 12 14 15 16 18 19 20 21 22 23 24 25 25 26 27 27 28 28 28 28 29 29 29 28 28 28 28 28 28 28 28 28 28 29 29 29 29
6 7 9 10 11 13 14 15 17 18 20 21 21 22 23 24 25 26 27 27 29 29 30 30 31 31 31 31 31 31 30 30 30 30 29 28 28 29 29 30 30 30 29
7 8 10 11 12 14 15 16 18 19 21 22 23 24 25 26 26 27 28 28 30 31 31 32 32 32 33 33 33 32 32 31 31 30 30 30 30 30 30 30 30 31 31
8 9 11 12 13 15 16 18 19 21 22 24 25 26 27 27 28 29 29 31 32 32 33 33 34 34 33 33 33 32 32 31 31 31 30 31 31 31 32 32 32 32 32
9 11 12 13 15 16 17 19 20 22 24 25 26 27 28 29 29 30 32 33 33 33 33 34 35 35 35 35 34 33 32 31 31 31 31 31 31 31 32 32 33 32 32